Location: Forli
(44.2227°N, 12.0407°E)
Time: 11:10:15
(UTC+01:00)

ISS - Pass Details

Date: 17 February 2026
Orbit: 416 x 426 km, 51.6° (Epoch: 10 March)

Event Time Altitude Azimuth Distance (km) Brightness Sun altitude
Exits shadow 05:39:03 46° 276° (W) 572 -3.6 -16.7°
Maximum altitude 05:39:49 62° 333° (NNW) 472 -3.7 -16.5°
Drops below altitude 10° 05:43:08 10° 55° (NE) 1,494 -0.2 -15.9°
Sets 05:45:15 0° 58° (ENE) 2,359 1.0 -15.6°
